Wind_Speed
4 3 5 5 7 8 10 6 10 11 8 10 20 17 18 16 13 14 17 17 16 16 13 15 16 18 20 19 19 18 17 16 15 15 16 17 18 17 16 16 15 14 14
6 3 3 6 6 6 7 5 6 7 5 12 24 17 17 17 17 13 16 18 17 16 13 15 17 17 18 18 18 18 16 15 14 15 15 16 16 15 15 15 14 14 14
7 4 1 5 5 5 5 6 7 8 7 15 22 19 17 17 16 16 15 17 18 16 15 14 15 17 17 17 17 16 16 15 13 13 13 16 15 15 13 14 13 13 13
8 5 4 3 3 4 4 5 6 8 8 13 22 25 20 18 16 15 15 15 16 15 13 14 15 16 16 15 14 14 14 14 11 12 14 13 14 13 12 13 12 13 13
10 9 6 3 2 3 3 4 5 7 9 10 22 23 20 22 20 15 15 14 13 13 13 13 14 15 14 13 13 14 13 13 10 9 16 12 13 12 11 12 12 13 14
9 9 8 7 6 4 3 2 4 7 9 12 28 29 24 18 18 17 14 15 15 14 14 13 14 13 13 12 12 12 13 14 13 11 13 10 11 11 10 11 12 13 14
10 8 8 7 7 7 6 5 3 5 7 9 18 23 29 28 22 26 17 15 14 13 12 13 14 14 13 12 13 13 14 14 13 14 10 9 10 10 9 11 11 12 12
8 8 8 8 8 7 7 6 5 2 5 8 11 17 29 27 23 24 17 15 13 13 13 12 13 14 14 13 13 14 14 13 14 14 10 9 10 9 8 10 10 10 10
8 9 9 8 9 7 5 6 6 3 3 8 10 13 14 25 27 26 20 15 16 15 13 13 14 14 15 14 13 13 14 12 11 14 11 9 10 9 8 7 8 9 8
13 11 10 9 7 7 6 5 4 5 4 2 11 16 14 19 22 26 25 21 18 15 14 14 13 14 14 13 12 12 12 11 10 8 9 10 8 9 8 6 5 7 7
15 14 12 10 10 8 8 7 5 4 5 4 2 9 16 20 23 26 25 22 20 18 17 17 15 15 14 13 13 11 11 10 9 11 9 8 8 8 8 5 4 4 6
18 15 14 13 11 10 9 7 6 5 4 4 5 7 12 19 26 28 27 23 24 24 23 20 18 17 14 13 12 12 11 10 9 8 6 7 6 7 7 6 4 3 3
20 19 15 14 13 10 11 9 6 5 5 7 9 11 12 22 24 24 27 26 21 21 22 21 19 18 17 15 14 10 10 10 10 8 8 7 7 6 6 7 6 4 2
18 20 20 17 13 11 10 10 10 7 6 8 12 17 19 16 24 27 30 26 26 22 22 20 19 18 18 16 14 13 12 11 11 10 8 8 7 6 6 6 7 6 5
15 19 18 18 16 14 11 10 9 10 8 9 11 15 12 11 23 21 27 29 26 20 19 20 17 20 19 18 17 15 14 13 14 12 13 9 8 9 7 7 8 9 8
11 14 17 17 17 14 14 13 11 10 9 9 8 12 9 6 14 13 26 24 29 21 21 20 18 20 20 19 18 16 14 14 14 12 10 11 11 11 9 8 9 10 9
14 11 14 15 16 16 14 13 13 12 10 9 10 7 8 4 9 14 13 23 21 23 23 23 26 21 20 20 19 18 16 16 15 14 13 14 13 9 13 9 10 10 11
16 15 12 14 15 14 15 15 12 13 10 9 8 9 7 6 5 14 15 21 21 28 29 31 31 22 19 20 18 19 18 18 15 14 13 13 13 15 15 12 14 14 13
15 17 14 12 14 15 15 17 15 12 12 11 10 9 6 6 8 8 11 13 12 16 26 17 23 27 26 21 17 20 18 18 17 16 15 16 16 15 14 14 14 15 16
16 16 15 14 13 16 14 16 17 15 15 12 11 13 9 8 9 9 8 6 11 16 16 13 13 21 23 28 22 21 19 20 20 21 20 19 18 19 18 18 18 17 18
15 16 16 18 16 18 19 17 18 17 15 15 12 12 15 8 10 12 14 13 14 15 21 16 16 18 18 27 26 26 25 23 23 24 24 22 19 19 19 19 20 19 20
16 17 19 20 20 21 23 23 23 22 20 18 16 12 14 17 13 14 14 17 19 19 18 19 19 21 21 26 31 29 27 27 26 28 24 21 21 19 17 17 19 19 20
17 18 18 21 22 23 26 27 27 27 25 22 20 19 14 16 16 15 16 15 18 20 20 23 24 24 24 24 28 29 29 28 29 29 24 23 21 20 21 20 19 20 21
19 19 21 22 23 24 26 26 27 29 30 29 27 27 20 15 17 18 18 17 16 19 19 24 26 25 25 28 32 31 31 31 31 30 27 24 24 23 22 21 22 22 24
22 22 22 24 24 26 24 24 28 30 28 31 34 33 33 24 19 19 20 20 19 20 21 21 22 24 25 22 21 30 34 32 32 29 28 26 26 26 24 23 26 26 26
25 23 24 25 26 27 26 26 26 28 30 33 36 37 37 39 30 24 23 23 23 21 24 24 24 23 23 23 21 19 21 24 30 32 29 29 30 30 29 27 28 27 23
Wind_Direction
91 90 137 188 165 157 152 141 174 159 159 200 179 175 159 157 162 162 148 142 144 144 143 141 134 138 133 131 125 118 114 107 102 99 94 91 90 85 77 75 68 65 65
78 80 125 154 151 159 178 182 156 143 167 167 173 171 171 162 161 165 158 151 152 152 146 147 143 141 136 134 130 123 119 116 106 100 98 97 94 85 79 73 67 65 64
75 56 72 107 132 170 167 175 158 153 165 179 172 186 185 167 167 166 171 159 157 158 156 155 150 142 138 140 134 129 124 117 109 104 102 107 100 90 79 73 67 64 63
63 48 27 58 99 118 154 179 155 145 156 165 181 189 189 180 176 175 175 177 168 159 164 158 153 146 141 140 134 124 120 122 123 120 114 114 108 95 85 74 71 69 65
47 42 41 45 74 92 124 145 157 156 161 168 175 171 183 187 177 175 183 186 175 163 169 168 158 147 141 140 138 136 133 130 130 129 122 126 115 102 91 86 78 76 69
41 34 40 52 64 79 83 103 128 148 165 173 175 174 178 189 187 179 186 192 179 170 174 171 161 150 146 144 146 138 133 130 128 128 122 133 120 107 100 91 84 79 78
39 31 28 32 47 51 57 59 91 147 165 175 193 194 183 187 198 187 183 188 181 172 181 174 164 158 154 156 154 151 144 143 135 128 139 143 126 113 105 98 90 85 80
48 39 41 35 30 40 50 53 63 119 191 195 204 200 195 189 192 179 184 189 181 182 182 181 174 168 167 164 164 157 148 155 149 136 158 149 131 121 115 107 101 93 85
62 54 42 38 29 27 46 58 51 71 183 212 213 217 220 212 201 191 200 193 192 185 186 189 181 181 175 173 174 162 157 161 163 150 165 151 137 128 120 111 108 96 86
42 47 51 38 29 19 19 41 64 59 71 203 219 227 235 214 207 201 197 209 202 191 197 197 191 186 187 182 181 172 163 164 160 161 160 152 147 134 127 127 109 98 86
30 34 34 36 25 14 6 12 17 25 29 17 332 218 221 227 205 201 210 208 197 196 201 200 196 194 193 188 189 183 175 176 176 171 168 171 157 145 137 147 123 102 87
23 21 26 25 27 9 358 3 3 357 358 345 327 301 246 224 218 222 205 206 199 206 207 200 199 198 191 193 200 187 186 191 192 190 193 191 176 161 154 164 158 137 103
19 21 13 17 20 5 2 352 344 336 332 326 322 299 281 233 232 223 209 204 208 208 205 201 202 200 198 197 201 197 205 198 208 209 194 202 195 192 181 180 187 191 184
9 11 14 13 9 358 8 350 345 325 321 316 328 322 296 250 220 215 212 202 195 213 208 204 205 207 211 207 211 207 210 221 219 213 213 212 207 211 214 211 210 211 226
21 12 7 12 12 354 360 347 349 333 323 315 336 342 316 210 215 230 218 204 200 212 208 209 211 220 216 219 220 219 215 218 224 218 219 224 223 216 219 230 235 236 238
10 14 5 4 13 3 351 349 344 337 332 317 331 342 357 235 222 234 222 224 214 216 211 208 210 227 221 222 227 227 222 225 227 227 225 231 231 231 223 229 234 245 257
332 353 353 347 353 2 353 345 345 339 338 331 322 327 348 326 221 241 229 225 214 212 210 212 219 222 220 221 226 227 227 230 227 233 229 236 234 246 239 233 238 242 245
319 324 335 334 340 345 356 352 337 338 335 329 314 317 316 332 299 245 221 213 225 225 214 227 214 221 217 220 226 229 230 235 234 232 241 242 243 240 240 239 242 242 248
303 306 309 308 322 331 338 338 344 334 332 334 321 302 288 283 307 330 223 213 220 213 215 208 216 228 223 223 224 236 239 242 245 243 232 239 246 250 254 251 249 256 254
303 295 296 294 298 301 307 318 326 334 333 329 332 319 315 276 256 259 262 251 244 220 204 210 225 216 226 219 224 247 246 245 246 250 252 249 248 257 258 260 262 263 265
313 304 297 298 290 291 296 298 299 308 316 326 323 325 308 288 275 259 248 244 245 232 226 234 239 235 236 216 238 248 246 251 252 253 253 256 258 257 265 271 274 273 275
318 313 308 301 298 288 288 285 287 289 295 305 311 307 299 298 282 267 251 244 239 238 229 236 242 244 242 232 238 243 249 248 254 254 256 256 260 262 259 259 264 270 276
312 310 301 298 297 292 287 284 279 280 283 285 289 289 294 291 292 284 279 267 259 253 247 242 244 240 243 244 241 242 243 244 250 254 255 254 254 252 257 253 257 264 267
303 297 297 295 294 291 289 292 286 280 274 273 272 277 280 277 283 284 279 269 262 260 255 253 248 247 250 254 248 244 246 242 240 246 252 252 251 252 253 256 260 268 267
294 291 293 294 292 291 289 284 286 284 277 272 270 269 272 265 262 269 273 275 265 258 252 250 253 250 244 251 240 246 241 241 238 240 246 251 256 256 254 260 269 279 283
297 288 283 281 283 285 285 284 277 278 278 269 268 268 264 264 258 247 256 265 269 263 261 253 246 245 242 240 243 236 226 233 237 238 242 244 243 250 258 261 271 279 280
Height
5893 5893 5895 5896 5897 5898 5899 5900 5901 5903 5904 5906 5909 5910 5910 5913 5914 5915 5915 5917 5921 5922 5924 5924 5924 5925 5925 5926 5927 5929 5930 5931 5933 5933 5933 5933 5935 5936 5936 5936 5936 5937 5938
5894 5895 5896 5896 5896 5897 5899 5900 5901 5902 5904 5906 5909 5911 5912 5914 5915 5918 5917 5917 5921 5923 5925 5926 5926 5927 5928 5929 5929 5930 5932 5933 5934 5934 5935 5936 5937 5938 5939 5939 5940 5940 5940
5894 5895 5897 5897 5898 5898 5898 5899 5901 5903 5904 5907 5909 5913 5914 5916 5917 5918 5921 5920 5920 5923 5926 5927 5928 5928 5930 5930 5931 5931 5932 5934 5935 5936 5937 5938 5939 5941 5941 5941 5942 5942 5942
5895 5896 5896 5897 5898 5898 5899 5900 5900 5902 5904 5906 5908 5912 5914 5916 5918 5919 5920 5923 5922 5924 5928 5929 5930 5929 5930 5932 5932 5933 5934 5935 5937 5937 5938 5939 5941 5942 5943 5943 5944 5944 5944
5897 5897 5898 5899 5898 5899 5900 5900 5901 5902 5905 5907 5909 5912 5915 5917 5919 5920 5922 5924 5925 5925 5929 5930 5930 5930 5931 5932 5933 5934 5935 5937 5938 5939 5939 5942 5942 5943 5944 5945 5945 5945 5945
5898 5898 5899 5899 5900 5900 5901 5901 5901 5904 5906 5908 5910 5911 5914 5917 5919 5920 5922 5925 5925 5926 5930 5931 5931 5931 5932 5933 5935 5936 5937 5938 5939 5942 5942 5944 5944 5945 5946 5947 5947 5947 5947
5900 5900 5900 5901 5900 5900 5901 5902 5903 5904 5906 5909 5911 5911 5914 5915 5918 5920 5921 5925 5926 5927 5931 5931 5931 5932 5933 5934 5935 5937 5938 5939 5940 5941 5944 5945 5946 5946 5948 5948 5948 5948 5948
5903 5902 5902 5902 5901 5901 5902 5903 5905 5905 5906 5908 5910 5913 5914 5916 5918 5921 5922 5925 5924 5928 5931 5933 5933 5933 5934 5935 5936 5936 5939 5940 5941 5942 5946 5947 5947 5948 5949 5949 5949 5950 5950
5905 5904 5904 5903 5902 5903 5903 5904 5906 5907 5908 5909 5911 5913 5915 5918 5918 5920 5923 5924 5927 5929 5930 5933 5934 5935 5935 5936 5937 5939 5939 5941 5942 5943 5946 5947 5948 5949 5950 5951 5951 5951 5952
5906 5905 5905 5906 5905 5905 5905 5906 5907 5909 5910 5911 5912 5913 5914 5916 5917 5920 5922 5925 5926 5928 5931 5933 5934 5935 5936 5937 5939 5940 5941 5943 5943 5946 5947 5947 5949 5949 5950 5951 5952 5952 5953
5907 5906 5906 5906 5906 5905 5906 5906 5907 5908 5910 5911 5912 5912 5914 5915 5917 5919 5921 5923 5925 5927 5929 5931 5933 5935 5936 5938 5939 5940 5942 5943 5944 5945 5946 5948 5948 5949 5950 5952 5953 5953 5954
5908 5908 5907 5907 5906 5907 5907 5907 5907 5907 5909 5911 5912 5912 5912 5914 5916 5918 5920 5921 5924 5926 5927 5929 5930 5933 5935 5937 5939 5939 5941 5943 5944 5945 5947 5948 5949 5949 5950 5951 5953 5954 5954
5909 5910 5909 5908 5907 5907 5907 5908 5908 5908 5909 5909 5910 5910 5911 5912 5915 5917 5919 5920 5923 5924 5927 5928 5930 5932 5934 5935 5937 5939 5940 5942 5944 5946 5947 5948 5948 5949 5950 5951 5952 5954 5954
5912 5911 5911 5911 5909 5908 5908 5908 5909 5909 5909 5908 5908 5906 5904 5908 5910 5914 5916 5918 5920 5923 5925 5928 5929 5931 5934 5935 5936 5937 5940 5942 5942 5944 5945 5947 5948 5950 5950 5951 5952 5953 5954
5916 5913 5911 5911 5912 5909 5909 5908 5908 5909 5909 5908 5907 5905 5901 5902 5907 5912 5913 5917 5920 5921 5924 5928 5930 5932 5934 5935 5935 5936 5938 5940 5942 5942 5944 5946 5947 5948 5949 5950 5952 5953 5954
5915 5916 5913 5911 5912 5911 5910 5909 5909 5908 5908 5907 5907 5905 5904 5904 5906 5909 5912 5916 5918 5921 5924 5926 5928 5930 5932 5933 5935 5935 5937 5939 5941 5941 5943 5944 5946 5947 5947 5948 5950 5951 5953
5911 5915 5915 5912 5911 5911 5910 5910 5909 5908 5907 5907 5907 5906 5906 5904 5906 5909 5911 5913 5916 5919 5922 5924 5925 5929 5930 5932 5933 5934 5935 5937 5940 5940 5941 5943 5945 5945 5946 5947 5948 5949 5949
5910 5910 5913 5912 5911 5911 5910 5909 5909 5908 5909 5908 5907 5907 5906 5904 5905 5908 5909 5911 5914 5916 5919 5921 5923 5926 5928 5930 5931 5933 5933 5935 5937 5939 5939 5941 5942 5943 5944 5944 5945 5945 5946
5908 5907 5909 5910 5909 5910 5909 5908 5908 5908 5909 5909 5907 5907 5907 5905 5905 5906 5908 5911 5914 5915 5917 5919 5922 5923 5925 5928 5930 5931 5933 5934 5934 5935 5938 5939 5940 5941 5943 5944 5944 5945 5944
5905 5905 5905 5907 5908 5906 5907 5907 5906 5906 5905 5907 5908 5905 5906 5906 5905 5907 5909 5912 5913 5914 5916 5918 5919 5921 5923 5925 5927 5928 5930 5932 5932 5933 5933 5935 5939 5939 5941 5942 5943 5943 5944
5904 5903 5903 5903 5904 5904 5903 5904 5904 5903 5904 5903 5905 5906 5903 5906 5905 5906 5907 5909 5910 5912 5913 5915 5917 5918 5920 5922 5925 5926 5927 5929 5930 5930 5931 5933 5935 5937 5938 5939 5940 5940 5940
5902 5901 5900 5899 5899 5899 5899 5900 5901 5901 5902 5902 5902 5904 5904 5902 5904 5904 5904 5905 5906 5908 5910 5911 5913 5914 5916 5918 5920 5923 5924 5926 5927 5926 5930 5931 5931 5933 5934 5935 5933 5933 5933
5899 5898 5898 5896 5895 5895 5894 5894 5895 5897 5897 5898 5898 5899 5900 5900 5900 5900 5900 5902 5901 5902 5903 5906 5907 5909 5910 5913 5913 5915 5917 5920 5921 5923 5926 5927 5927 5927 5927 5929 5929 5929 5929
5896 5895 5894 5892 5891 5890 5890 5890 5889 5890 5892 5893 5894 5893 5896 5896 5895 5896 5896 5897 5898 5898 5899 5899 5900 5902 5903 5905 5905 5907 5909 5911 5914 5917 5920 5922 5922 5922 5921 5923 5924 5925 5925
5893 5892 5890 5888 5886 5886 5886 5884 5883 5883 5885 5884 5886 5888 5888 5892 5892 5890 5890 5891 5893 5893 5893 5893 5894 5895 5897 5898 5897 5897 5901 5904 5906 5911 5913 5915 5916 5916 5918 5919 5919 5919 5921
5888 5887 5885 5884 5881 5879 5879 5878 5878 5876 5876 5876 5877 5879 5880 5881 5885 5886 5886 5885 5886 5888 5888 5888 5889 5889 5890 5892 5893 5892 5892 5896 5899 5903 5907 5908 5908 5909 5910 5913 5913 5913 5914